FW3054 Weather Reports


Display with metric or nautical units.
time (UTC)temp
F
wind
direction
speed
MPH
gust
MPH
rain 1hr
in
rain 24hr
in
rain mn
in
humidity
%
barometer
mb
20260906011517 76 0.0 0.0 0.00 0.00 0.00 84 1015.5
20260906010557 76 0.0 0.0 0.00 0.00 0.00 84 1015.3
20260906005517 77 0.0 0.0 0.00 0.00 0.00 84 1015.3
20260906004517 77 0.0 0.0 0.00 0.00 0.00 83 1015.2
20260906003537 77 0.0 0.0 0.00 0.00 0.00 83 1015.1
20260906002537 77 0.0 0.0 0.00 0.00 0.00 83 1014.9
20260906001517 77 0.0 0.0 0.00 0.00 0.00 82 1014.9
20260906000517 78 0.0 0.0 0.00 0.00 0.00 81 1014.9
20260905235517 79 0.0 0.0 0.00 0.00 0.00 80 1014.7
20260905234517 79 0.0 0.0 0.00 0.00 0.00 79 1014.6
20260905233517 80 0.0 0.0 0.00 0.00 0.00 78 1014.8
20260905232517 80 0.0 0.0 0.00 0.00 0.00 77 1014.5
20260905231517 80 0.0 0.0 0.00 0.00 0.00 75 1014.4
20260905230517 81 0.0 0.0 0.00 0.00 0.00 75 1014.5
20260905225516 82 0.0 0.0 0.00 0.00 0.00 74 1014.6
20260905224516 82 0.0 0.0 0.00 0.00 0.00 72 1014.6
20260905223517 83 0.0 1.0 0.00 0.00 0.00 69 1014.6
20260905222516 83 0.0 0.0 0.00 0.00 0.00 69 1014.9
20260905221517 83 0.0 1.0 0.00 0.00 0.00 67 1014.7
20260905220517 83 0.0 1.0 0.00 0.00 0.00 67 1014.7
20260905215537 84 0.0 1.0 0.00 0.00 0.00 67 1014.9
20260905214517 84 0.0 1.0 0.00 0.00 0.00 66 1015.1
20260905213516 84 0.0 2.0 0.00 0.00 0.00 65 1015.2
20260905212517 84 0.0 1.0 0.00 0.00 0.00 66 1015.5
20260905211517 84 0.0 1.0 0.00 0.00 0.00 66 1015.7
20260905210517 84 0.0 1.0 0.00 0.00 0.00 67 1015.7
20260905205516 84 0.0 0.0 0.00 0.00 0.00 69 1015.7
20260905204516 84 0.0 0.0 0.00 0.00 0.00 69 1015.7
20260905203517 84 0.0 0.0 0.00 0.00 0.00 69 1015.7
20260905202516 84 0.0 1.0 0.00 0.00 0.00 69 1015.7
20260905201516 82 0.0 2.0 0.00 0.00 0.00 72 1015.8
20260905200516 81 0.0 1.0 0.00 0.00 0.00 75 1015.8
20260905195516 79 0.0 1.0 0.00 0.00 0.00 77 1016.2
20260905194516 79 0.0 2.0 0.00 0.00 0.00 77 1016.1
20260905193537 78 0.0 0.0 0.00 0.00 0.00 75 1016.1
20260905192556 78 0.0 0.0 0.00 0.00 0.00 75 1016.2
20260905191536 78 0.0 0.0 0.00 0.00 0.00 75 1016.3
20260905190516 77 0.0 2.0 0.00 0.00 0.00 73 1016.1
20260905185516 77 0.0 0.0 0.00 0.00 0.00 78 1016.6
20260905184516 78 0.0 0.0 0.00 0.00 0.00 76 1016.4
20260905183516 78 0.0 0.0 0.00 0.00 0.00 74 1016.9
20260905182516 78 0.0 0.0 0.00 0.00 0.00 72 1016.7
20260905181516 78 0.0 2.0 0.00 0.00 0.00 71 1016.5
20260905180536 78 45 1.0 4.0 0.00 0.00 0.00 71 1017.3
20260905175516 78 23 3.0 6.0 0.00 0.00 0.00 71 1017.2
20260905174516 79 338 1.0 5.0 0.00 0.00 0.00 69 1016.5
20260905173516 80 0.0 1.0 0.00 0.00 0.00 67 1016.5
20260905172536 83 0.0 2.0 0.00 0.00 0.00 66 1017.1
20260905171556 84 0.0 1.0 0.00 0.00 0.00 65 1017.7
20260905170517 86 0.0 1.0 0.00 0.00 0.00 67 1017.6
20260905165516 87 0.0 1.0 0.00 0.00 0.00 65 1017.4
20260905164516 87 23 1.0 3.0 0.00 0.00 0.00 62 1017.4
20260905163516 88 23 1.0 4.0 0.00 0.00 0.00 61 1017.4
20260905162516 87 23 1.0 5.0 0.00 0.00 0.00 63 1017.8
20260905161516 87 23 2.0 5.0 0.00 0.00 0.00 64 1017.7
20260905160516 86 23 1.0 4.0 0.00 0.00 0.00 64 1017.9
20260905155516 86 23 2.0 6.0 0.00 0.00 0.00 64 1018.1
20260905154516 85 23 2.0 5.0 0.00 0.00 0.00 66 1018.1
20260905153516 84 45 1.0 4.0 0.00 0.00 0.00 70 1017.9
20260905152516 84 0.0 0.0 0.00 0.00 0.00 72 1017.8
20260905151516 83 0.0 0.0 0.00 0.00 0.00 74 1017.9
20260905150516 82 0.0 0.0 0.00 0.00 0.00 76 1017.8
20260905145516 81 0.0 0.0 0.00 0.00 0.00 79 1017.8
20260905144556 81 0.0 0.0 0.00 0.00 0.00 83 1017.8
20260905143536 80 0.0 0.0 0.00 0.00 0.00 81 1017.8
20260905142516 79 0.0 1.0 0.00 0.00 0.00 82 1018.0
20260905141516 78 0.0 0.0 0.00 0.00 0.00 83 1018.0
20260905140516 77 0.0 1.0 0.00 0.00 0.00 85 1017.9
20260905135516 76 0.0 0.0 0.00 0.00 0.00 86 1017.9
20260905134516 75 0.0 0.0 0.00 0.00 0.00 87 1018.0
20260905133516 74 0.0 1.0 0.00 0.00 0.00 88 1018.1
20260905132516 73 0.0 1.0 0.00 0.00 0.00 89 1018.2
20260905131516 73 0.0 0.0 0.00 0.00 0.00 89 1018.3
20260905130516 72 0.0 0.0 0.00 0.00 0.00 89 1018.3
20260905125516 72 0.0 1.0 0.00 0.00 0.00 89 1018.3
20260905124515 71 0.0 0.0 0.00 0.00 0.00 89 1018.3
20260905123516 71 0.0 0.0 0.00 0.00 0.00 89 1018.3
20260905122536 71 0.0 0.0 0.00 0.00 0.00 89 1018.3
20260905121516 70 0.0 0.0 0.00 0.00 0.00 89 1017.9
20260905120516 70 0.0 0.0 0.00 0.00 0.00 89 1018.0
20260905115516 70 0.0 1.0 0.00 0.00 0.00 89 1017.9
20260905114516 70 0.0 0.0 0.00 0.00 0.00 89 1017.8
20260905113516 70 0.0 0.0 0.00 0.00 0.00 89 1017.8
20260905112516 70 0.0 0.0 0.00 0.00 0.00 89 1017.8
20260905111515 70 0.0 0.0 0.00 0.00 0.00 89 1017.5
20260905110516 69 0.0 0.0 0.00 0.00 0.00 89 1017.3
20260905105616 70 0.0 0.0 0.00 0.00 0.00 89 1017.3
20260905104516 70 0.0 1.0 0.00 0.00 0.00 89 1017.3
20260905103515 70 0.0 0.0 0.00 0.00 0.00 89 1017.1
20260905102516 70 0.0 0.0 0.00 0.00 0.00 89 1017.3
20260905101516 70 0.0 0.0 0.00 0.00 0.00 89 1017.3
20260905100516 70 0.0 0.0 0.00 0.00 0.00 89 1017.0
20260905095515 70 0.0 0.0 0.00 0.00 0.00 89 1017.3
20260905094515 70 0.0 0.0 0.00 0.00 0.00 89 1017.2
20260905093515 70 0.0 0.0 0.00 0.00 0.00 88 1017.2
20260905092515 70 0.0 0.0 0.00 0.00 0.00 88 1017.4
20260905091515 70 0.0 1.0 0.00 0.00 0.00 88 1017.5
20260905090515 70 0.0 0.0 0.00 0.00 0.00 88 1017.4
20260905085515 70 0.0 1.0 0.00 0.00 0.00 89 1017.6
20260905084515 70 0.0 1.0 0.00 0.00 0.00 89 1017.7
20260905083516 71 0.0 0.0 0.00 0.00 0.00 88 1017.6
20260905082515 71 0.0 0.0 0.00 0.00 0.00 88 1017.7
20260905081515 71 0.0 0.0 0.00 0.00 0.00 88 1017.7
20260905080516 71 0.0 0.0 0.00 0.00 0.00 88 1017.9
20260905075557 71 0.0 0.0 0.00 0.00 0.00 88 1018.0
20260905074515 71 0.0 0.0 0.00 0.00 0.00 88 1018.0
20260905073515 71 0.0 1.0 0.00 0.00 0.00 88 1018.1
20260905072517 71 0.0 1.0 0.00 0.00 0.00 88 1018.1
20260905071537 71 0.0 0.0 0.00 0.00 0.00 88 1018.3
20260905070517 71 0.0 0.0 0.00 0.00 0.00 89 1018.4
20260905065517 71 0.0 0.0 0.00 0.00 0.00 89 1018.3
20260905064517 71 0.0 0.0 0.00 0.00 0.00 89 1018.4
20260905063517 71 0.0 1.0 0.00 0.00 0.00 89 1018.5
20260905062537 72 0.0 0.0 0.00 0.00 0.00 89 1018.6
20260905061517 72 0.0 0.0 0.00 0.00 0.00 89 1018.6
20260905060537 72 0.0 0.0 0.00 0.00 0.00 89 1018.8
20260905055517 72 0.0 0.0 0.00 0.00 0.00 89 1018.9
20260905054517 72 0.0 0.0 0.00 0.00 0.00 89 1018.9
20260905053517 72 0.0 0.0 0.00 0.00 0.00 89 1018.8
20260905052517 72 0.0 0.0 0.00 0.00 0.00 89 1018.9
20260905051557 72 0.0 0.0 0.00 0.00 0.00 89 1018.9
20260905050517 73 0.0 0.0 0.00 0.00 0.00 89 1018.7
20260905045517 73 0.0 0.0 0.00 0.00 0.00 89 1018.7
20260905044517 73 0.0 0.0 0.00 0.00 0.00 89 1018.8
20260905043517 73 0.0 0.0 0.00 0.00 0.00 89 1018.7
20260905042517 73 0.0 0.0 0.00 0.00 0.00 89 1018.3
20260905041517 74 0.0 0.0 0.00 0.00 0.00 88 1018.2
20260905040517 74 0.0 0.0 0.00 0.00 0.00 88 1018.3
20260905035517 74 0.0 0.0 0.00 0.00 0.00 88 1018.1
20260905034517 75 0.0 0.0 0.00 0.00 0.00 87 1018.1
20260905033517 75 0.0 0.0 0.00 0.00 0.00 87 1018.6
20260905032517 75 0.0 0.0 0.00 0.00 0.00 86 1018.1
20260905031537 75 0.0 0.0 0.00 0.00 0.00 86 1018.2
20260905030517 76 0.0 0.0 0.00 0.00 0.00 86 1018.3
20260905025537 76 0.0 0.0 0.00 0.00 0.00 86 1018.2
20260905024517 76 0.0 0.0 0.00 0.00 0.00 86 1018.2
20260905023517 77 0.0 0.0 0.00 0.00 0.00 85 1018.4
20260905022517 77 0.0 0.0 0.00 0.00 0.00 84 1018.4
20260905021517 77 0.0 0.0 0.00 0.00 0.00 83 1018.3
20260905020517 78 0.0 0.0 0.00 0.00 0.00 83 1018.6
20260905015517 78 0.0 1.0 0.00 0.00 0.00 82 1018.6
20260905014517 78 0.0 0.0 0.00 0.00 0.00 82 1018.7
20260905013517 79 0.0 0.0 0.00 0.00 0.00 81 1018.7
20260905012517 79 0.0 0.0 0.00 0.00 0.00 80 1018.4